EW2546 Weather Reports


Display with metric or nautical units.
time (UTC)temp
F
wind
direction
speed
MPH
gust
MPH
rain 1hr
in
rain 24hr
in
rain mn
in
humidity
%
barometer
mb
20260510073052 47 0 0.0 0.0 0.03 0.28 0.03 95 1011.9
20260510072531 47 0 0.0 0.0 0.03 0.28 0.03 95 1011.8
20260510072025 48 0 0.0 0.0 0.02 0.27 0.02 95 1011.8
20260510071538 48 0 0.0 0.0 0.02 0.27 0.02 95 1011.9
20260510071025 47 0 0.0 0.0 0.02 0.27 0.02 95 1012.1
20260510070525 47 0 0.0 0.0 0.01 0.26 0.01 95 1012.2
20260510070037 47 0 0.0 0.0 0.01 0.26 0.01 95 1012.3
20260510065525 48 0 0.0 0.0 0.01 0.26 0.01 95 1012.3
20260510065024 48 0 0.0 0.0 0.00 0.25 0.00 95 1012.3
20260510064549 48 0 0.0 0.0 0.00 0.25 0.00 95 1012.3
20260510064027 48 0 0.0 0.0 0.00 0.25 0.00 95 1012.4
20260510063525 48 0 0.0 0.0 0.00 0.25 0.00 95 1012.4
20260510063042 47 0 0.0 0.0 0.00 0.25 0.00 95 1012.3
20260510062524 47 0 0.0 0.0 0.00 0.25 0.00 95 1012.5
20260510062025 47 0 0.0 0.0 0.00 0.25 0.00 95 1012.6
20260510061545 47 0 0.0 1.0 0.00 0.25 0.00 95 1012.7
20260510061025 47 0 0.0 1.0 0.00 0.25 0.00 95 1012.6
20260510060526 47 76 0.0 0.0 0.00 0.25 0.00 95 1012.6
20260510060047 46 0 0.0 0.0 0.00 0.25 0.00 95 1012.8
20260510055525 46 0 0.0 1.0 0.00 0.25 0.00 95 1012.7
20260510055023 46 0 0.0 1.0 0.00 0.25 0.00 95 1012.7
20260510054538 46 0 0.0 0.0 0.00 0.25 0.00 95 1012.7
20260510054024 46 0 0.0 0.0 0.00 0.25 0.00 95 1012.7
20260510053522 46 0 0.0 0.0 0.00 0.25 0.00 95 1012.8
20260510053042 46 0 0.0 0.0 0.00 0.25 0.00 95 1012.7
20260510052523 46 0 0.0 0.0 0.00 0.25 0.00 95 1012.7
20260510052024 45 0 0.0 0.0 0.00 0.25 0.00 95 1012.6
20260510051542 45 0 0.0 0.0 0.00 0.25 0.00 95 1012.8
20260510051026 45 0 0.0 0.0 0.00 0.25 0.00 95 1012.7
20260510050522 45 0 0.0 0.0 0.00 0.25 0.00 95 1012.5
20260510050043 45 0 0.0 0.0 0.00 0.25 0.00 95 1012.7
20260510045525 45 0 0.0 0.0 0.00 0.25 0.00 95 1012.8
20260510045023 45 0 0.0 0.0 0.00 0.25 0.00 95 1012.9
20260510044554 45 0 0.0 0.0 0.00 0.25 0.00 95 1012.9
20260510044025 44 0 0.0 0.0 0.00 0.25 0.00 95 1012.9
20260510043525 44 0 0.0 0.0 0.00 0.25 0.00 95 1012.8
20260510043050 44 0 0.0 0.0 0.00 0.25 0.00 95 1012.9
20260510042523 44 0 0.0 0.0 0.00 0.25 0.00 95 1013.0
20260510042025 44 0 0.0 0.0 0.00 0.25 0.00 95 1013.1
20260510041537 44 0 0.0 0.0 0.00 0.25 0.00 95 1013.1
20260510041023 44 0 0.0 0.0 0.01 0.25 0.00 95 1013.0
20260510040529 44 0 0.0 0.0 0.01 0.25 0.00 95 1013.0
20260510040043 44 0 0.0 0.0 0.01 0.25 0.00 95 1013.0
20260510035523 44 0 0.0 0.0 0.01 0.25 0.25 95 1013.2
20260510035023 44 0 0.0 0.0 0.02 0.25 0.25 95 1013.1
20260510034536 44 0 0.0 0.0 0.02 0.25 0.25 95 1013.2
20260510034023 44 0 0.0 0.0 0.02 0.25 0.25 95 1013.1
20260510033522 44 0 0.0 0.0 0.02 0.25 0.25 95 1013.2
20260510033052 44 0 0.0 0.0 0.02 0.25 0.25 94 1013.2
20260510032523 44 0 0.0 0.0 0.02 0.25 0.25 94 1013.2
20260510032028 44 0 0.0 0.0 0.02 0.25 0.25 94 1013.2
20260510031540 44 0 0.0 0.0 0.02 0.25 0.25 94 1013.5
20260510031022 44 0 0.0 0.0 0.01 0.24 0.24 94 1013.5
20260510030529 44 0 0.0 0.0 0.02 0.24 0.24 94 1013.7
20260510030045 44 0 0.0 0.0 0.02 0.24 0.24 94 1013.6
20260510025525 44 0 0.0 0.0 0.02 0.24 0.24 94 1013.7
20260510025027 44 0 0.0 0.0 0.02 0.23 0.23 94 1013.7
20260510024538 44 0 0.0 0.0 0.02 0.23 0.23 94 1013.7
20260510024023 44 0 0.0 0.0 0.02 0.23 0.23 94 1013.7
20260510023525 44 0 0.0 0.0 0.02 0.23 0.23 94 1013.8
20260510023036 44 0 0.0 0.0 0.02 0.23 0.23 95 1013.8
20260510022527 44 0 0.0 0.0 0.02 0.23 0.23 94 1013.8
20260510022027 44 0 0.0 0.0 0.02 0.23 0.23 94 1013.7
20260510021536 44 0 0.0 0.0 0.02 0.23 0.23 94 1013.7
20260510021024 44 0 0.0 0.0 0.02 0.23 0.23 94 1013.7
20260510020525 44 0 0.0 0.0 0.01 0.22 0.22 94 1013.7
20260510020034 44 0 0.0 0.0 0.01 0.22 0.22 94 1013.7
20260510015525 44 0 0.0 0.0 0.01 0.22 0.22 94 1013.6
20260510015029 44 0 0.0 0.0 0.00 0.21 0.21 94 1013.6
20260510014541 44 0 0.0 0.0 0.00 0.21 0.21 94 1013.7
20260510014028 44 0 0.0 0.0 0.00 0.21 0.21 94 1013.6
20260510013525 44 0 0.0 0.0 0.00 0.21 0.21 94 1013.7
20260510013037 44 0 0.0 0.0 0.00 0.21 0.21 94 1013.7
20260510012525 44 0 0.0 0.0 0.00 0.21 0.21 94 1013.6
20260510012024 44 0 0.0 1.0 0.00 0.21 0.21 94 1013.6
20260510011539 44 0 0.0 1.0 0.01 0.21 0.21 94 1013.7
20260510011025 44 0 0.0 1.0 0.01 0.21 0.21 94 1013.7
20260510010525 44 0 0.0 0.0 0.01 0.21 0.21 94 1013.6
20260510010039 44 0 0.0 0.0 0.01 0.21 0.21 94 1013.7
20260510005525 44 0 0.0 0.0 0.01 0.21 0.21 94 1013.8
20260510005025 44 0 0.0 0.0 0.01 0.21 0.21 94 1013.9
20260510004540 44 0 0.0 0.0 0.01 0.21 0.21 94 1014.0
20260510004024 44 0 0.0 0.0 0.01 0.21 0.21 94 1014.0
20260510003525 44 0 0.0 0.0 0.02 0.21 0.21 94 1014.1
20260510003040 44 0 0.0 0.0 0.02 0.21 0.21 94 1014.0
20260510002525 44 0 0.0 0.0 0.02 0.21 0.21 94 1014.1
20260510002027 44 0 0.0 0.0 0.02 0.21 0.21 94 1014.1
20260510001539 44 0 0.0 0.0 0.01 0.20 0.20 94 1013.9
20260510001023 44 0 0.0 0.0 0.01 0.20 0.20 94 1014.0
20260510000525 44 0 0.0 0.0 0.01 0.20 0.20 94 1013.9
20260510000049 44 0 0.0 0.0 0.02 0.20 0.20 94 1014.0
20260509235524 44 0 0.0 0.0 0.02 0.20 0.20 94 1014.0
20260509235030 44 0 0.0 0.0 0.02 0.20 0.20 94 1014.0
20260509234551 44 0 0.0 0.0 0.02 0.20 0.20 94 1014.1
20260509234024 44 0 0.0 0.0 0.02 0.20 0.20 94 1014.0
20260509233524 44 0 0.0 0.0 0.01 0.19 0.19 94 1014.0
20260509233038 44 0 0.0 4.0 0.02 0.19 0.19 94 1014.1
20260509232528 44 0 0.0 4.0 0.02 0.19 0.19 94 1014.0
20260509232025 44 0 0.0 0.0 0.03 0.19 0.19 94 1014.1
20260509231536 44 0 0.0 0.0 0.04 0.19 0.19 94 1014.1
20260509231025 44 0 0.0 0.0 0.04 0.19 0.19 94 1014.1
20260509230525 44 0 0.0 0.0 0.05 0.19 0.19 94 1014.1
20260509230040 44 0 0.0 0.0 0.04 0.18 0.18 94 1014.1
20260509225528 44 0 0.0 0.0 0.04 0.18 0.18 94 1014.2
20260509225024 44 0 0.0 0.0 0.05 0.18 0.18 94 1014.1
20260509224540 44 0 0.0 0.0 0.05 0.18 0.18 94 1014.1
20260509224024 44 0 0.0 0.0 0.05 0.18 0.18 94 1014.1
20260509223524 44 0 0.0 0.0 0.05 0.18 0.18 94 1014.2
20260509223038 44 0 0.0 3.0 0.04 0.17 0.17 94 1014.3
20260509222525 44 0 0.0 4.0 0.04 0.17 0.17 93 1014.4
20260509222027 44 0 0.0 4.0 0.03 0.16 0.16 93 1014.6
20260509221538 44 0 0.0 1.0 0.03 0.15 0.15 93 1014.5
20260509221026 44 0 0.0 1.0 0.03 0.15 0.15 93 1014.6
20260509220527 44 0 0.0 1.0 0.02 0.14 0.14 93 1014.6
20260509220040 44 0 0.0 0.0 0.02 0.14 0.14 93 1014.6
20260509215524 44 0 0.0 0.0 0.02 0.14 0.14 93 1014.5
20260509215025 45 0 0.0 3.0 0.01 0.13 0.13 93 1014.5
20260509214537 45 0 0.0 4.0 0.01 0.13 0.13 93 1014.4
20260509214024 45 0 0.0 4.0 0.01 0.13 0.13 93 1014.5
20260509213524 45 0 0.0 1.0 0.01 0.13 0.13 93 1014.4
20260509213035 45 0 0.0 3.0 0.02 0.13 0.13 93 1014.5
20260509212524 45 0 0.0 3.0 0.02 0.13 0.13 93 1014.6
20260509212024 45 0 0.0 4.0 0.02 0.13 0.13 93 1014.5
20260509211531 45 0 0.0 4.0 0.02 0.12 0.12 93 1014.4
20260509211024 45 0 0.0 0.0 0.03 0.12 0.12 93 1014.6
20260509210525 45 0 0.0 2.0 0.03 0.12 0.12 93 1014.5
20260509210038 45 0 0.0 2.0 0.04 0.12 0.12 92 1014.4
20260509205524 45 0 0.0 3.0 0.05 0.12 0.12 93 1014.5
20260509205027 45 0 0.0 3.0 0.05 0.12 0.12 93 1014.4
20260509204538 45 0 0.0 3.0 0.06 0.12 0.12 93 1014.4
20260509204027 45 0 0.0 2.0 0.06 0.12 0.12 92 1014.7
20260509203524 45 0 0.0 2.0 0.07 0.12 0.12 92 1015.0
20260509203043 45 0 0.0 0.0 0.06 0.11 0.11 92 1015.1
20260509202524 45 0 0.0 1.0 0.06 0.11 0.11 92 1015.2
20260509202024 45 0 0.0 2.0 0.07 0.11 0.11 92 1015.1
20260509201553 45 0 0.0 2.0 0.06 0.10 0.10 91 1015.2
20260509201025 45 134 0.0 0.0 0.05 0.09 0.09 91 1015.3
20260509200530 45 0 0.0 0.0 0.06 0.09 0.09 90 1015.3
20260509200052 45 0 0.0 2.0 0.05 0.08 0.08 90 1015.2
20260509195530 46 0 0.0 2.0 0.05 0.07 0.07 90 1015.2
20260509195025 46 0 0.0 0.0 0.04 0.06 0.06 90 1015.3
20260509194539 46 0 0.0 2.0 0.04 0.06 0.06 90 1015.2
20260509194025 46 0 0.0 2.0 0.04 0.06 0.06 89 1015.2
20260509193526 46 0 0.0 2.0 0.04 0.05 0.05 88 1015.2
20260509193051 46 0 0.0 0.0 0.04 0.05 0.05 89 1015.3
20260509192526 46 0 0.0 5.0 0.04 0.05 0.05 88 1015.3
20260509192030 46 0 0.0 5.0 0.04 0.04 0.04 87 1015.4
20260509191537 46 0 0.0 5.0 0.04 0.04 0.04 86 1015.5
20260509191025 46 0 0.0 0.0 0.04 0.04 0.04 86 1015.7
20260509190525 47 0 0.0 0.0 0.03 0.03 0.03 87 1015.6
20260509190038 47 0 0.0 5.0 0.03 0.03 0.03 86 1015.6
20260509185526 47 0 0.0 5.0 0.02 0.02 0.02 84 1015.5
20260509185026 47 0 0.0 0.0 0.02 0.02 0.02 84 1015.6
20260509184545 47 0 0.0 0.0 0.02 0.02 0.02 82 1015.6
20260509184025 48 0 0.0 0.0 0.02 0.02 0.02 83 1015.6
20260509183526 48 0 0.0 0.0 0.01 0.01 0.01 81 1015.7
20260509183038 48 0 0.0 0.0 0.01 0.01 0.01 81 1015.6
20260509182526 48 0 0.0 0.0 0.01 0.01 0.01 79 1015.6
20260509182026 48 0 0.0 0.0 0.00 0.00 0.00 77 1015.6
20260509181544 48 0 0.0 4.0 0.00 0.00 0.00 76 1015.6
20260509181031 48 0 0.0 4.0 0.00 0.00 0.00 74 1015.5
20260509180526 48 150 0.0 7.0 0.00 0.00 0.00 72 1015.5
20260509180045 49 0 0.0 7.0 0.00 0.00 0.00 68 1015.5
20260509175527 50 0 0.0 8.0 0.00 0.00 0.00 66 1015.6
20260509175029 50 199 0.0 8.0 0.00 0.00 0.00 64 1015.5
20260509174543 51 0 2.0 8.0 0.00 0.00 0.00 64 1015.4
20260509174056 51 152 1.0 8.0 0.00 0.00 0.00 61 1015.4
20260509173526 51 145 0.0 10.0 0.00 0.00 0.00 60 1015.3
20260509173044 51 151 1.0 10.0 0.00 0.00 0.00 60 1015.3
20260509172526 51 0 0.0 5.0 0.00 0.00 0.00 60 1015.2
20260509172027 51 134 0.0 11.0 0.00 0.00 0.00 57 1015.3
20260509171545 52 226 0.0 11.0 0.00 0.00 0.00 55 1015.4
20260509171027 53 0 3.0 11.0 0.00 0.00 0.00 50 1015.4
20260509170525 53 0 3.0 10.0 0.00 0.00 0.00 48 1015.4
20260509170038 54 147 2.0 8.0 0.00 0.00 0.00 47 1015.2
20260509165526 54 0 0.0 11.0 0.00 0.00 0.00 47 1015.2
20260509165026 54 0 0.0 11.0 0.00 0.00 0.00 44 1015.1
20260509164538 54 196 2.0 11.0 0.00 0.00 0.00 42 1015.3
20260509164025 54 0 0.0 12.0 0.00 0.00 0.00 40 1015.2
20260509163528 55 170 3.0 13.0 0.00 0.00 0.00 39 1015.2
20260509163038 55 0 1.0 13.0 0.00 0.00 0.00 40 1015.0
20260509162527 55 149 0.0 8.0 0.00 0.00 0.00 41 1015.1
20260509162030 56 211 2.0 8.0 0.00 0.00 0.00 39 1015.0
20260509161539 56 0 1.0 10.0 0.00 0.00 0.00 39 1014.9
20260509161026 56 139 0.0 10.0 0.00 0.00 0.00 39 1015.0
20260509160526 56 181 1.0 8.0 0.00 0.00 0.00 39 1015.0
20260509160040 56 0 0.0 8.0 0.00 0.00 0.00 38 1014.9
20260509155526 56 0 0.0 6.0 0.00 0.00 0.00 38 1014.9
20260509155025 56 0 1.0 7.0 0.00 0.00 0.00 38 1014.9
20260509154538 56 203 1.0 7.0 0.00 0.00 0.00 38 1015.0
20260509154027 56 131 0.0 6.0 0.00 0.00 0.00 36 1014.9
20260509153526 56 0 1.0 6.0 0.00 0.00 0.00 36 1014.9
20260509153038 57 0 0.0 3.0 0.00 0.00 0.00 37 1014.9
20260509152526 57 0 0.0 3.0 0.00 0.00 0.00 39 1015.0
20260509152029 57 147 0.0 4.0 0.00 0.00 0.00 37 1015.0
20260509151542 57 0 0.0 5.0 0.00 0.00 0.00 39 1014.8
20260509151025 57 0 0.0 5.0 0.00 0.00 0.00 36 1014.9
20260509150525 57 0 1.0 5.0 0.00 0.00 0.00 35 1014.9
20260509150055 57 0 1.0 5.0 0.00 0.00 0.00 36 1014.8
20260509145527 57 211 1.0 5.0 0.00 0.00 0.00 36 1014.9
20260509145026 57 0 1.0 6.0 0.00 0.00 0.00 35 1014.8
20260509144620 57 153 1.0 6.0 0.00 0.00 0.00 36 1014.7
20260509144025 57 186 1.0 8.0 0.00 0.00 0.00 36 1014.7
20260509143529 57 184 1.0 8.0 0.00 0.00 0.00 37 1014.7
20260509143045 57 0 2.0 8.0 0.00 0.00 0.00 37 1014.7
20260509142528 58 222 1.0 8.0 0.00 0.00 0.00 36 1014.7
20260509142025 58 0 1.0 8.0 0.00 0.00 0.00 37 1014.6
20260509141542 57 0 1.0 5.0 0.00 0.00 0.00 37 1014.5
20260509141022 57 0 0.0 8.0 0.00 0.00 0.00 36 1014.5
20260509140523 57 0 0.0 8.0 0.00 0.00 0.00 37 1014.7
20260509140036 57 0 2.0 8.0 0.00 0.00 0.00 34 1014.6
20260509135523 57 0 0.0 7.0 0.00 0.00 0.00 37 1014.6
20260509135026 57 153 1.0 7.0 0.00 0.00 0.00 35 1014.7
20260509134539 57 201 2.0 7.0 0.00 0.00 0.00 35 1014.6
20260509134022 57 0 1.0 6.0 0.00 0.00 0.00 36 1014.7
20260509133525 57 0 0.0 6.0 0.00 0.00 0.00 37 1014.7
20260509133039 57 0 0.0 6.0 0.00 0.00 0.00 38 1014.7
20260509132526 57 239 0.0 5.0 0.00 0.00 0.00 40 1014.8
20260509132023 56 0 0.0 8.0 0.00 0.00 0.00 39 1014.7
20260509131541 56 0 0.0 8.0 0.00 0.00 0.00 41 1014.9
20260509131023 55 237 0.0 7.0 0.00 0.00 0.00 42 1014.8
20260509130522 54 0 0.0 7.0 0.00 0.00 0.00 45 1014.9
20260509130039 53 0 0.0 6.0 0.00 0.00 0.00 47 1014.8
20260509125523 52 0 0.0 0.0 0.00 0.00 0.00 59 1014.8
20260509125024 50 0 0.0 0.0 0.00 0.00 0.00 63 1015.0
20260509124556 49 0 0.0 0.0 0.00 0.00 0.00 64 1015.1
20260509124023 48 0 0.0 0.0 0.00 0.00 0.00 66 1015.1
20260509123523 47 0 0.0 0.0 0.00 0.00 0.00 69 1015.2
20260509123036 46 0 0.0 0.0 0.00 0.00 0.00 71 1015.2
20260509122523 45 0 0.0 0.0 0.00 0.00 0.00 74 1015.2
20260509122027 44 0 0.0 0.0 0.00 0.00 0.00 77 1015.1
20260509121536 43 0 0.0 0.0 0.00 0.00 0.00 78 1015.2
20260509121026 42 0 0.0 0.0 0.00 0.00 0.00 80 1015.3
20260509120524 41 0 0.0 0.0 0.00 0.00 0.00 81 1015.3
20260509120040 40 0 0.0 0.0 0.00 0.00 0.00 83 1015.2
20260509115523 39 0 0.0 0.0 0.00 0.00 0.00 84 1015.3
20260509115023 38 0 0.0 0.0 0.00 0.00 0.00 88 1015.4
20260509114536 37 0 0.0 0.0 0.00 0.00 0.00 90 1015.3
20260509114026 36 0 0.0 0.0 0.00 0.00 0.00 92 1015.3
20260509113529 35 0 0.0 0.0 0.00 0.00 0.00 93 1015.4
20260509113036 35 0 0.0 0.0 0.00 0.00 0.00 94 1015.4
20260509112523 34 0 0.0 0.0 0.00 0.00 0.00 94 1015.4
20260509112025 34 0 0.0 0.0 0.00 0.00 0.00 94 1015.4
20260509111535 33 0 0.0 0.0 0.00 0.00 0.00 93 1015.2
20260509111027 33 0 0.0 0.0 0.00 0.00 0.00 93 1015.2
20260509110525 33 0 0.0 0.0 0.00 0.00 0.00 93 1015.2
20260509110041 32 0 0.0 0.0 0.00 0.00 0.00 94 1015.1
20260509105525 32 0 0.0 0.0 0.00 0.00 0.00 94 1015.0
20260509105025 31 0 0.0 0.0 0.00 0.00 0.00 93 1015.1
20260509104540 31 0 0.0 0.0 0.00 0.00 0.00 93 1015.1
20260509104025 31 0 0.0 0.0 0.00 0.00 0.00 93 1015.0
20260509103525 30 0 0.0 0.0 0.00 0.00 0.00 93 1015.0
20260509103044 30 0 0.0 0.0 0.00 0.00 0.00 93 1014.9
20260509102525 30 0 0.0 0.0 0.00 0.00 0.00 93 1014.8
20260509102026 30 0 0.0 0.0 0.00 0.00 0.00 93 1014.6
20260509101539 30 0 0.0 0.0 0.00 0.00 0.00 93 1014.6
20260509101026 29 0 0.0 0.0 0.00 0.00 0.00 93 1014.6
20260509100525 29 0 0.0 0.0 0.00 0.00 0.00 92 1014.5
20260509100049 29 0 0.0 0.0 0.00 0.00 0.00 92 1014.4
20260509095526 29 0 0.0 0.0 0.00 0.00 0.00 92 1014.3
20260509095025 29 0 0.0 0.0 0.00 0.00 0.00 92 1014.3
20260509094536 29 0 0.0 0.0 0.00 0.00 0.00 92 1014.3
20260509094022 30 0 0.0 0.0 0.00 0.00 0.00 92 1014.3
20260509093525 30 0 0.0 0.0 0.00 0.00 0.00 92 1014.2
20260509093036 29 0 0.0 0.0 0.00 0.00 0.00 92 1014.1
20260509092523 29 0 0.0 0.0 0.00 0.00 0.00 92 1014.0
20260509092024 29 0 0.0 0.0 0.00 0.00 0.00 92 1014.0
20260509091540 29 0 0.0 0.0 0.00 0.00 0.00 92 1013.9
20260509091025 30 0 0.0 0.0 0.00 0.00 0.00 92 1013.8
20260509090525 30 0 0.0 0.0 0.00 0.00 0.00 92 1013.8
20260509090035 30 0 0.0 0.0 0.00 0.00 0.00 92 1013.9
20260509085525 30 0 0.0 0.0 0.00 0.00 0.00 92 1013.9
20260509085029 30 0 0.0 0.0 0.00 0.00 0.00 92 1014.0
20260509084536 30 0 0.0 0.0 0.00 0.00 0.00 92 1014.0
20260509084022 30 0 0.0 0.0 0.00 0.00 0.00 92 1014.1
20260509083524 30 0 0.0 0.0 0.00 0.00 0.00 92 1014.1
20260509083043 30 0 0.0 0.0 0.00 0.00 0.00 92 1014.1
20260509082526 30 0 0.0 0.0 0.00 0.00 0.00 92 1014.1
20260509082025 30 0 0.0 0.0 0.00 0.00 0.00 92 1014.1
20260509081545 30 0 0.0 0.0 0.00 0.00 0.00 92 1014.1
20260509081026 30 0 0.0 0.0 0.00 0.00 0.00 92 1014.1
20260509080526 30 0 0.0 0.0 0.00 0.00 0.00 92 1014.0
20260509080041 30 0 0.0 0.0 0.00 0.00 0.00 92 1014.1
20260509075525 30 0 0.0 0.0 0.00 0.00 0.00 92 1014.2
20260509075026 30 0 0.0 0.0 0.00 0.00 0.00 92 1014.1
20260509074538 30 0 0.0 0.0 0.00 0.00 0.00 92 1014.1
20260509074025 30 0 0.0 0.0 0.00 0.00 0.00 92 1014.0
20260509073525 30 0 0.0 0.0 0.00 0.00 0.00 91 1014.0